Location: Seattle
(47.6064°N, 122.3308°W)
Time: 14:34:08
(UTC-08:00)

S-56A Canister/Altair - Pass Details

Date: 05 October 2022
Orbit: 638 x 2494 km, 38.9° (Epoch: 02 December)

Event Time Altitude Azimuth Distance (km) Brightness Sun altitude
Exits shadow 05:20:24 29° 242° (WSW) 2,350 9.4 -19.8°
Maximum altitude 05:23:52 40° 199° (SSW) 1,740 9.0 -19.3°
Drops below altitude 10° 05:29:52 10° 131° (SE) 2,683 10.8 -18.3°
Sets 05:32:11 0° 124° (ESE) 3,443 11.5 -17.9°
